• MPC Preparation (Info)

  • MPEC 2010-V01 : 2010 UV7

    The following Minor Planet Electronic Circular may be linked-to from your own Web pages, but must not otherwise be redistributed electronically.

    A form allowing access to any MPEC is at the bottom of this page.


    Read MPEC 2010-U71 Read MPEC 2010-V02


    M.P.E.C. 2010-V01                                Issued 2010 Nov. 1, 02:47 UT
    
         The Minor Planet Electronic Circulars contain information on unusual
             minor planets and routine data on comets.  They are published
       on behalf of Commission 20 of the International Astronomical Union by the
              Minor Planet Center, Smithsonian Astrophysical Observatory,
                              Cambridge, MA 02138, U.S.A.
    
                 Prepared using the Tamkin Foundation Computer Network
    
                                  MPC@CFA.HARVARD.EDU
           URL https://www.minorplanetcenter.org/iau/mpc.html  ISSN 1523-6714
    
                                       2010 UV7
    
    Observations:
         K10U07V* C2010 10 30.24013 01 35 35.77 +04 10 00.3          20.9 V EV001G96
         K10U07V  C2010 10 30.24495 01 35 33.93 +04 10 15.2          21.1 V EV001G96
         K10U07V  C2010 10 30.24986 01 35 32.02 +04 10 30.0          20.6 V EV001G96
         K10U07V  C2010 10 30.25479 01 35 30.19 +04 10 45.3          20.9 V EV001G96
         K10U07V  C2010 10 30.29438 01 35 14.96 +04 12 46.1          21.2 V EV001G96
         K10U07V  C2010 10 30.29485 01 35 14.74 +04 12 47.6          20.8 V EV001G96
         K10U07V  C2010 10 30.29508 01 35 14.58 +04 12 48.1          20.1 R EV001H01
         K10U07V  C2010 10 30.29531 01 35 14.60 +04 12 49.2          21.1 V EV001G96
         K10U07V  C2010 10 30.29578 01 35 14.42 +04 12 50.7          20.9 V EV001G96
         K10U07V  C2010 10 30.30234 01 35 11.81 +04 13 10.2          20.8 R EV001H01
         K10U07V  C2010 10 30.30992 01 35 08.90 +04 13 33.3          20.4 R EV001H01
         K10U07V  C2010 10 30.31614 01 35 06.51 +04 13 52.3          20.3 R EV001H01
         K10U07V  C2010 10 30.41981 01 34 27.29 +04 19 07.0          21.6 V EV001G96
         K10U07V  C2010 10 30.42088 01 34 26.85 +04 19 10.3          21.6 V EV001G96
         K10U07V  C2010 10 30.42194 01 34 26.53 +04 19 13.6          21.9 V EV001G96
         K10U07V  C2010 10 31.18418 01 29 54.42 +04 56 46.2          21.2 V EV001G96
         K10U07V  C2010 10 31.19188 01 29 51.68 +04 57 07.8          20.3 V EV001G96
         K10U07V  C2010 10 31.19927 01 29 48.85 +04 57 29.0          20.8 R EV001H01
         K10U07V  C2010 10 31.19956 01 29 48.91 +04 57 30.2          21.3 V EV001G96
         K10U07V KC2010 10 31.20653301 29 45.78 +04 57 47.3          20.7 V EV001H21
         K10U07V  C2010 10 31.20726 01 29 46.10 +04 57 52.5          21.4 V EV001G96
         K10U07V  C2010 10 31.20869 01 29 45.49 +04 57 56.0          20.6 R EV001H01
         K10U07V  C2010 10 31.21881 01 29 41.85 +04 58 25.6          20.8 R EV001H01
         K10U07V KC2010 10 31.22246501 29 40.06 +04 58 33.1          20.5 V EV001H21
         K10U07V  C2010 10 31.22844 01 29 38.39 +04 58 52.8          20.5 R EV001H01
         K10U07V KC2010 10 31.23927201 29 34.03 +04 59 21.0          20.9 V EV001H21
         K10U07V tC2010 10 31.24926 01 29 30.87 +04 59 55.6                 EV001291
         K10U07V tC2010 10 31.25329 01 29 29.64 +05 00 04.7                 EV001291
         K10U07V KC2010 10 31.25547 01 29 28.40 +05 00 07.8          21.1 R EV001H36
         K10U07V tC2010 10 31.25741 01 29 28.28 +05 00 15.5                 EV001291
         K10U07V KC2010 10 31.27064 01 29 23.04 +05 00 50.9          20.9 R EV001H36
    
    Observer details:
    291 LPL/Spacewatch II.  Observer T. H. Bressi.  1.8-m f/2.7 reflector + CCD.
    G96 Mt. Lemmon Survey.  Observers A. R. Gibbs, A. Boattini.  Measurers
        J. D. Ahern, E. C. Beshore, A. Boattini, G. J. Garradd, A. R. Gibbs,
        A. D. Grauer, R. E. Hill, R. A. Kowalski, S. M. Larson, R. H. McNaught.
        1.5-m reflector + CCD.
    H01 Magdalena Ridge Observatory, Socorro.  Observers W. H. Ryan, E. V. Ryan.
        Measurer W. H. Ryan.  2.4-m f/8.9 reflector + CCD.
    H21 Astronomical Research Observatory, Westfield.  Observer R. Holmes.
        Measurers S. Foglia, T. Vorobjov.  0.61-m f/4.0 astrograph + CCD.
    H36 Sandlot Observatory, Scranton.  Observer G. Hug.  0.56-m reflector + CCD.
    
    Orbital elements:
    2010 UV7                                                 Earth MOID = 0.1723 AU
    Epoch 2010 July 23.0 TT = JDT 2455400.5                 MPC
    M 348.03080              (2000.0)            P               Q
    n   0.81002207     Peri.  221.79149     -0.28134830     +0.90627542
    a   1.1397374      Node    35.53823     -0.67162781     +0.04881877
    e   0.5997360      Incl.   32.86841     -0.68538983     -0.41985900
    P   1.22           H   22.4           G   0.15           U   9
    Residuals in seconds of arc
    101030 G96  0.3-  0.1-    101030 H01  0.3-  0.2+    101031 H01  0.4-  0.6+
    101030 G96  0.1-  0.0     101030 G96  0.1-  0.4-    101031 H21  0.2+  0.1-
    101030 G96  0.4-  0.2-    101030 G96  0.7-  0.3-    101031 H01  0.5-  0.1+
    101030 G96  0.6+  0.1-    101030 G96  0.5+  0.2-    101031 H21  0.0   0.4-
    101030 G96  0.2+  0.4-    101031 G96  0.1-  0.3+    101031 291 (3.1-  2.3+)
    101030 G96  0.4-  0.3-    101031 G96  0.3+  0.3-    101031 291  0.2+  0.2-
    101030 H01  0.1-  0.2+    101031 H01  0.7-  0.2+    101031 H36  0.4-  0.3-
    101030 G96  0.1+  0.1-    101031 G96  0.2+  0.1-    101031 291 (1.9+  1.2-)
    101030 G96  0.1+  0.1-    101031 H21  0.2+  0.2-    101031 H36  0.5+  0.6-
    101030 H01  0.1+  0.1+    101031 G96  0.5-  0.1+
    101030 H01  0.1-  0.1+    101031 H01  0.3-  0.1+
    
    Ephemeris:
    2010 UV7                 a,e,i = 1.14, 0.60, 33                  q = 0.4562
    Date    TT    R. A. (2000) Decl.     Delta      r     Elong.  Phase     V
    2010 10 31    01 30.98   +04 48.1    0.304    1.289   164.9    11.6    21.1
    2010 11 05    01 06.18   +08 14.3    0.361    1.329   156.1    17.6    21.7
    2010 11 10    00 49.11   +10 43.5    0.424    1.368   147.8    22.7    22.3
    2010 11 15    00 37.62   +12 35.2    0.493    1.405   140.6    26.6    22.8
    2010 11 20    00 30.16   +14 02.5    0.565    1.440   134.3    29.4    23.2
    
                           (Last issue was M.P.E.C. 2010-U71)
    
    Carl W. Hergenrother         (C) Copyright 2010 MPC           M.P.E.C. 2010-V01
    

    Read MPEC 2010-U71 Read MPEC 2010-V02


    MPEC number:

    Enter an MPEC number in one of the following forms:

    • 1997-B01 (the full form)
    • J97B01 (the packed version of the full form)
    • B01 (the abbreviated form)